Вернуться в каталог

CZ-4 DEB

АктивенSSO
NORAD 23258·DEBRIS·🇨🇳 China

Запущен Sep 3, 1990 с Taiyuan Satellite Launch Center

Loading…

Ближайшие Пролёты (ближайшие 24 часа)

TLE

СвежийSource: Space-Track

Эпоха: Sep 13, 2026, 16:15 UTC

1 23258U 90081CP  26256.67754153  .00000305  00000-0  16212-3 0  9990
2 23258  98.7125 243.3653 0022014 149.9640 210.2804 14.20404371772191

Отслеживайте CZ-4 DEB в реальном времени с AllMySat

Download on the App Store